Starlink 3732

operational
NORAD ID: 52126 Int'l Des: 2022-029 Owner: SPXS Country: US Constellation: starlink
LEOCIRCULAR

Über Starlink 3732

Beschreibung wird geladen...

Live-Position

3D-Globus wird geladen...

Nächste Überflüge

Höhenverlauf

Altitude vs Time

uPlot chart will show altitude changes over time

Zweizeiliger Elementsatz

1 52126U 22029AQ 25261.00934053 .00000237 00000-0 32970-4 0 9998
2 52126 53.2165 124.3119 0001419 89.9037 270.2118 15.08841011194859
Epoch: 18. Sept. 2025 • Age: 12 hours

Aktueller Status

Höhe 558.7 km
Geschwindigkeit 7.58 km/s
Subsatellitenpunkt -51.86°S, 171.81°W
Startdatum 19. März 2022
Alter 3.5 years
Typ internet

Technische Details

Klassifizierung Payload
Masse 297.00 kg
Trockenmasse 275.00 kg
Gesamtmasse 297.00 kg
Länge 0.20 m
Durchmesser 2.80 m
Spannweite 9.00 m
Form Box + pan
Hersteller SPXS
Bus-Typ Starlink
Phasenstatus In Orbit
Besitzer/Staat SPXS/US

Große Konstellationen

Loading constellations...